| time (UTC) | temp C | wind direction | speed KPH | gust KPH | rain 1hr cm | rain 24hr cm | rain mn cm | humidity % | barometer mb |
| 20260904011011 | 19 | 225 | 0.0 | 0.0 | 0.00 | 0.18 | 0.18 | 85 | 1015.8 |
| 20260904010011 | 19 | 225 | 0.0 | 0.0 | 0.00 | 0.18 | 0.18 | 87 | 1015.9 |
| 20260904005012 | 19 | 225 | 0.0 | 0.0 | 0.00 | 0.18 | 0.18 | 86 | 1015.7 |
| 20260904004910 | 19 | 225 | 0.0 | 0.0 | 0.00 | 0.18 | 0.18 | 87 | 1015.7 |
| 20260904003912 | 19 | 225 | 0.0 | 0.0 | 0.00 | 0.18 | 0.18 | 87 | 1015.5 |
| 20260904003011 | 19 | 225 | 0.0 | 0.0 | 0.00 | 0.18 | 0.18 | 88 | 1015.5 |
| 20260904002012 | 19 | 225 | 0.0 | 0.0 | 0.00 | 0.18 | 0.18 | 87 | 1015.3 |
| 20260904001910 | 19 | 225 | 0.0 | 0.0 | 0.00 | 0.18 | 0.18 | 87 | 1015.3 |
| 20260904000912 | 20 | 225 | 0.0 | 0.0 | 0.00 | 0.18 | 0.18 | 89 | 1015.1 |
| 20260903235911 | 20 | 225 | 0.0 | 0.0 | 0.00 | 0.18 | 0.18 | 88 | 1014.9 |
| 20260903234012 | 20 | 225 | 0.0 | 0.0 | 0.00 | 0.18 | 0.18 | 85 | 1014.8 |
| 20260903233912 | 20 | 225 | 0.0 | 0.0 | 0.00 | 0.18 | 0.18 | 86 | 1014.8 |
| 20260903233012 | 21 | 225 | 0.0 | 0.0 | 0.00 | 0.18 | 0.18 | 85 | 1014.8 |
| 20260903232011 | 21 | 225 | 0.0 | 0.0 | 0.00 | 0.18 | 0.18 | 84 | 1014.5 |
| 20260903231009 | 22 | 225 | 0.0 | 0.0 | 0.00 | 0.18 | 0.18 | 83 | 1014.6 |
| 20260903230012 | 23 | 225 | 0.0 | 0.0 | 0.00 | 0.18 | 0.18 | 80 | 1014.6 |
| 20260903225026 | 24 | 225 | 0.0 | 0.0 | 0.00 | 0.18 | 0.18 | 78 | 1014.8 |
| 20260903223012 | 24 | 225 | 0.0 | 1.6 | 0.00 | 0.18 | 0.18 | 76 | 1014.6 |
| 20260903221013 | 24 | 225 | 0.0 | 0.0 | 0.00 | 0.18 | 0.18 | 77 | 1014.7 |
| 20260903215111 | 24 | 214 | 1.6 | 4.8 | 0.00 | 0.18 | 0.18 | 74 | 1015.1 |
| 20260903214110 | 25 | 245 | 1.6 | 4.8 | 0.00 | 0.18 | 0.18 | 72 | 1014.8 |
| 20260903213209 | 25 | 175 | 3.2 | 9.7 | 0.00 | 0.18 | 0.18 | 72 | 1014.6 |
| 20260903212229 | 25 | 276 | 3.2 | 6.4 | 0.00 | 0.18 | 0.18 | 72 | 1014.8 |
| 20260903211309 | 25 | 247 | 0.0 | 3.2 | 0.00 | 0.18 | 0.18 | 71 | 1014.8 |
| 20260903210312 | 25 | 240 | 4.8 | 6.4 | 0.00 | 0.18 | 0.18 | 71 | 1014.8 |
| 20260903205212 | 26 | 178 | 4.8 | 6.4 | 0.00 | 0.18 | 0.18 | 71 | 1014.7 |
| 20260903204212 | 26 | 213 | 1.6 | 4.8 | 0.00 | 0.18 | 0.18 | 73 | 1014.7 |
| 20260903203211 | 26 | 157 | 0.0 | 0.0 | 0.00 | 0.18 | 0.18 | 74 | 1014.7 |
| 20260903201210 | 25 | 202 | 0.0 | 1.6 | 0.00 | 0.18 | 0.18 | 76 | 1014.9 |
| 20260903201147 | 25 | 190 | 0.0 | 1.6 | 0.00 | 0.18 | 0.18 | 76 | 1015.0 |
| 20260903200230 | 24 | 213 | 0.0 | 4.8 | 0.00 | 0.18 | 0.18 | 79 | 1015.0 |
| 20260903194230 | 23 | 183 | 3.2 | 4.8 | 0.00 | 0.18 | 0.18 | 82 | 1015.4 |
| 20260903193330 | 22 | 180 | 0.0 | 0.0 | 0.00 | 0.18 | 0.18 | 83 | 1015.5 |
| 20260903191431 | 23 | 157 | 1.6 | 1.6 | 0.00 | 0.18 | 0.18 | 83 | 1015.8 |
| 20260903191345 | 23 | 157 | 0.0 | 1.6 | 0.00 | 0.18 | 0.18 | 83 | 1015.8 |
| 20260903190433 | 23 | 202 | 0.0 | 0.0 | 0.00 | 0.18 | 0.18 | 83 | 1015.7 |
| 20260903184629 | 22 | 225 | 1.6 | 4.8 | 0.00 | 0.18 | 0.18 | 82 | 1015.9 |
| 20260903180529 | 20 | 247 | 0.0 | 0.0 | 0.00 | 0.18 | 0.18 | 88 | 1016.4 |
| 20260903180431 | 20 | 247 | 0.0 | 0.0 | 0.00 | 0.18 | 0.18 | 87 | 1016.5 |
| 20260903174530 | 20 | 337 | 0.0 | 0.0 | 0.00 | 0.18 | 0.18 | 89 | 1016.6 |
| 20260903173629 | 19 | 337 | 1.6 | 3.2 | 0.00 | 0.18 | 0.18 | 89 | 1016.8 |
| 20260903171648 | 18 | 337 | 0.0 | 0.0 | 0.00 | 0.18 | 0.18 | 88 | 1017.0 |
| 20260903170732 | 18 | 337 | 0.0 | 0.0 | 0.00 | 0.18 | 0.18 | 89 | 1017.0 |
| 20260903165732 | 18 | 337 | 0.0 | 0.0 | 0.00 | 0.18 | 0.18 | 89 | 1017.2 |
| 20260903163830 | 19 | 337 | 0.0 | 0.0 | 0.00 | 0.18 | 0.18 | 89 | 1017.0 |
| 20260903162830 | 18 | 337 | 0.0 | 0.0 | 0.00 | 0.18 | 0.18 | 89 | 1016.9 |
| 20260903161830 | 19 | 337 | 0.0 | 0.0 | 0.00 | 0.18 | 0.18 | 89 | 1016.9 |
| 20260903160830 | 20 | 337 | 0.0 | 1.6 | 0.00 | 0.18 | 0.18 | 89 | 1016.9 |
| 20260903155846 | 19 | 360 | 0.0 | 0.0 | 0.00 | 0.18 | 0.18 | 89 | 1017.0 |
| 20260903155730 | 19 | 360 | 0.0 | 0.0 | 0.00 | 0.18 | 0.18 | 88 | 1017.0 |
| 20260903154731 | 18 | 22 | 0.0 | 0.0 | 0.00 | 0.18 | 0.18 | 89 | 1017.0 |
| 20260903154631 | 18 | 22 | 0.0 | 0.0 | 0.00 | 0.18 | 0.18 | 89 | 1017.0 |
| 20260903153730 | 18 | 337 | 0.0 | 0.0 | 0.00 | 0.18 | 0.18 | 88 | 1017.1 |
| 20260903152730 | 18 | 337 | 0.0 | 0.0 | 0.00 | 0.18 | 0.18 | 86 | 1017.3 |
| 20260903151749 | 18 | 337 | 0.0 | 0.0 | 0.00 | 0.18 | 0.18 | 86 | 1017.6 |
| 20260903150830 | 18 | 337 | 0.0 | 0.0 | 0.00 | 0.18 | 0.18 | 85 | 1017.7 |
| 20260903145829 | 17 | 337 | 0.0 | 0.0 | 0.00 | 0.18 | 0.18 | 85 | 1017.7 |
| 20260903144830 | 17 | 337 | 0.0 | 0.0 | 0.00 | 0.18 | 0.18 | 85 | 1017.8 |
| 20260903143829 | 17 | 337 | 0.0 | 0.0 | 0.00 | 0.18 | 0.18 | 85 | 1017.9 |
| 20260903143730 | 17 | 337 | 0.0 | 0.0 | 0.00 | 0.18 | 0.18 | 85 | 1017.9 |
| 20260903142830 | 17 | 315 | 0.0 | 0.0 | 0.00 | 0.18 | 0.18 | 84 | 1017.9 |
| 20260903141831 | 16 | 157 | 0.0 | 0.0 | 0.00 | 0.18 | 0.18 | 85 | 1017.8 |
| 20260903140931 | 16 | 157 | 0.0 | 0.0 | 0.00 | 0.18 | 0.18 | 84 | 1018.0 |
| 20260903140832 | 16 | 157 | 0.0 | 0.0 | 0.00 | 0.18 | 0.18 | 85 | 1018.0 |
| 20260903135930 | 16 | 157 | 0.0 | 0.0 | 0.00 | 0.18 | 0.18 | 84 | 1018.1 |
| 20260903134931 | 16 | 157 | 0.0 | 0.0 | 0.00 | 0.18 | 0.18 | 84 | 1018.3 |
| 20260903133945 | 16 | 157 | 0.0 | 0.0 | 0.00 | 0.18 | 0.18 | 85 | 1018.2 |
| 20260903132129 | 15 | 157 | 0.0 | 0.0 | 0.00 | 0.18 | 0.18 | 85 | 1018.3 |
| 20260903131131 | 15 | 247 | 0.0 | 0.0 | 0.00 | 0.18 | 0.18 | 85 | 1018.1 |
| 20260903130130 | 15 | 247 | 0.0 | 0.0 | 0.00 | 0.18 | 0.18 | 85 | 1018.1 |
| 20260903125146 | 15 | 157 | 0.0 | 0.0 | 0.00 | 0.18 | 0.18 | 85 | 1018.4 |
| 20260903124130 | 15 | 157 | 0.0 | 0.0 | 0.00 | 0.18 | 0.18 | 85 | 1018.6 |
| 20260903124029 | 15 | 157 | 0.0 | 0.0 | 0.00 | 0.18 | 0.18 | 85 | 1018.4 |
| 20260903123031 | 15 | 157 | 0.0 | 0.0 | 0.00 | 0.18 | 0.18 | 84 | 1018.6 |
| 20260903122029 | 15 | 157 | 0.0 | 0.0 | 0.00 | 0.18 | 0.18 | 85 | 1018.6 |
| 20260903121031 | 15 | 157 | 0.0 | 0.0 | 0.00 | 0.18 | 0.18 | 85 | 1018.7 |
| 20260903120029 | 15 | 157 | 0.0 | 0.0 | 0.00 | 0.18 | 0.18 | 85 | 1018.9 |
| 20260903115930 | 15 | 157 | 0.0 | 0.0 | 0.00 | 0.18 | 0.18 | 86 | 1018.9 |
| 20260903114930 | 15 | 157 | 0.0 | 1.6 | 0.00 | 0.18 | 0.18 | 86 | 1019.0 |
| 20260903113930 | 15 | 157 | 0.0 | 0.0 | 0.00 | 0.18 | 0.18 | 85 | 1018.8 |
| 20260903112931 | 14 | 157 | 0.0 | 0.0 | 0.00 | 0.18 | 0.18 | 85 | 1018.9 |
| 20260903112030 | 14 | 157 | 0.0 | 0.0 | 0.00 | 0.18 | 0.18 | 86 | 1019.0 |
| 20260903111047 | 14 | 157 | 0.0 | 0.0 | 0.00 | 0.18 | 0.18 | 86 | 1019.1 |
| 20260903110129 | 14 | 157 | 0.0 | 0.0 | 0.00 | 0.18 | 0.18 | 85 | 1019.1 |
| 20260903110030 | 14 | 157 | 0.0 | 0.0 | 0.00 | 0.18 | 0.18 | 86 | 1019.1 |
| 20260903105031 | 14 | 157 | 0.0 | 0.0 | 0.00 | 0.18 | 0.18 | 85 | 1018.9 |
| 20260903104031 | 14 | 157 | 0.0 | 0.0 | 0.00 | 0.18 | 0.18 | 86 | 1018.9 |
| 20260903103031 | 14 | 157 | 0.0 | 0.0 | 0.00 | 0.18 | 0.18 | 86 | 1018.9 |
| 20260903102128 | 14 | 157 | 0.0 | 0.0 | 0.03 | 0.18 | 0.18 | 86 | 1018.8 |
| 20260903100030 | 14 | 157 | 0.0 | 0.0 | 0.03 | 0.18 | 0.18 | 86 | 1018.8 |
| 20260903094031 | 14 | 157 | 0.0 | 0.0 | 0.05 | 0.18 | 0.18 | 87 | 1018.8 |
| 20260903093030 | 14 | 157 | 0.0 | 0.0 | 0.05 | 0.18 | 0.18 | 87 | 1018.9 |
| 20260903092128 | 14 | 202 | 0.0 | 0.0 | 0.03 | 0.15 | 0.15 | 86 | 1019.1 |
| 20260903091131 | 14 | 157 | 0.0 | 0.0 | 0.03 | 0.15 | 0.15 | 87 | 1019.2 |
| 20260903090148 | 15 | 157 | 0.0 | 1.6 | 0.03 | 0.15 | 0.15 | 87 | 1019.2 |
| 20260903085130 | 15 | 157 | 0.0 | 0.0 | 0.03 | 0.15 | 0.15 | 87 | 1019.3 |
| 20260903085030 | 15 | 157 | 0.0 | 0.0 | 0.03 | 0.15 | 0.15 | 86 | 1019.4 |
| 20260903084030 | 15 | 157 | 0.0 | 0.0 | 0.00 | 0.13 | 0.13 | 87 | 1019.3 |
| 20260903083031 | 15 | 157 | 0.0 | 0.0 | 0.00 | 0.13 | 0.13 | 87 | 1019.5 |
| 20260903081932 | 15 | 157 | 0.0 | 0.0 | 0.00 | 0.13 | 0.13 | 86 | 1019.3 |
| 20260903080929 | 15 | 157 | 0.0 | 0.0 | 0.00 | 0.13 | 0.13 | 86 | 1019.4 |
| 20260903075930 | 15 | 157 | 0.0 | 0.0 | 0.00 | 0.13 | 0.13 | 88 | 1019.3 |
| 20260903074929 | 15 | 202 | 0.0 | 0.0 | 0.00 | 0.13 | 0.13 | 88 | 1019.6 |
| 20260903073030 | 15 | 202 | 0.0 | 0.0 | 0.03 | 0.13 | 0.13 | 88 | 1019.6 |
| 20260903072928 | 15 | 202 | 0.0 | 0.0 | 0.03 | 0.13 | 0.13 | 88 | 1019.7 |
| 20260903072830 | 15 | 202 | 0.0 | 0.0 | 0.03 | 0.13 | 0.13 | 88 | 1019.8 |
| 20260903071844 | 15 | 180 | 0.0 | 0.0 | 0.05 | 0.13 | 0.13 | 88 | 1019.8 |
| 20260903070930 | 15 | 180 | 0.0 | 1.6 | 0.08 | 0.13 | 0.13 | 88 | 1019.7 |
| 20260903064931 | 15 | 225 | 0.0 | 0.0 | 0.13 | 0.13 | 0.13 | 89 | 1019.5 |
| 20260903064846 | 15 | 225 | 0.0 | 0.0 | 0.13 | 0.13 | 0.13 | 88 | 1019.4 |
| 20260903063829 | 15 | 222 | 1.6 | 3.2 | 0.10 | 0.10 | 0.10 | 89 | 1019.8 |
| 20260903062831 | 15 | 180 | 0.0 | 0.0 | 0.10 | 0.10 | 0.08 | 89 | 1019.9 |
| 20260903060830 | 15 | 202 | 0.0 | 0.0 | 0.03 | 0.03 | 0.03 | 90 | 1021.0 |
| 20260903055929 | 15 | 202 | 0.0 | 0.0 | 0.00 | 0.00 | 0.00 | 90 | 1021.1 |
| 20260903054929 | 15 | 202 | 0.0 | 0.0 | 0.00 | 0.00 | 0.00 | 90 | 1021.1 |
| 20260903053931 | 15 | 202 | 0.0 | 0.0 | 0.00 | 0.00 | 0.00 | 90 | 1021.5 |
| 20260903053029 | 15 | 202 | 0.0 | 0.0 | 0.00 | 0.00 | 0.00 | 89 | 1021.6 |
| 20260903052031 | 15 | 202 | 0.0 | 0.0 | 0.00 | 0.00 | 0.00 | 90 | 1021.7 |
| 20260903051048 | 15 | 202 | 0.0 | 0.0 | 0.00 | 0.00 | 0.00 | 90 | 1021.6 |
| 20260903050047 | 15 | 202 | 0.0 | 0.0 | 0.00 | 0.00 | 0.00 | 90 | 1021.4 |
| 20260903045129 | 15 | 202 | 0.0 | 0.0 | 0.00 | 0.00 | 0.00 | 90 | 1021.3 |
| 20260903043129 | 15 | 202 | 0.0 | 0.0 | 0.00 | 0.00 | 0.00 | 90 | 1021.7 |
| 20260903042228 | 15 | 202 | 0.0 | 0.0 | 0.00 | 0.00 | 0.00 | 90 | 1021.7 |
| 20260903041230 | 15 | 202 | 0.0 | 0.0 | 0.00 | 0.00 | 0.00 | 90 | 1021.5 |
| 20260903040230 | 15 | 202 | 0.0 | 0.0 | 0.00 | 0.00 | 0.00 | 90 | 1021.8 |
| 20260903035234 | 15 | 202 | 0.0 | 0.0 | 0.00 | 0.00 | 0.00 | 90 | 1021.8 |
| 20260903035135 | 15 | 202 | 0.0 | 0.0 | 0.00 | 0.00 | 0.00 | 89 | 1021.9 |
| 20260903032134 | 16 | 202 | 0.0 | 0.0 | 0.00 | 0.00 | 0.00 | 89 | 1022.0 |
| 20260903031152 | 16 | 202 | 0.0 | 0.0 | 0.00 | 0.00 | 0.00 | 87 | 1022.3 |
| 20260903030133 | 16 | 202 | 0.0 | 0.0 | 0.00 | 0.00 | 0.00 | 88 | 1022.4 |
| 20260903024150 | 16 | 202 | 0.0 | 0.0 | 0.00 | 0.00 | 0.00 | 86 | 1022.5 |
| 20260903022136 | 16 | 202 | 0.0 | 0.0 | 0.00 | 0.00 | 0.00 | 86 | 1022.6 |
| 20260903021134 | 16 | 202 | 0.0 | 0.0 | 0.00 | 0.00 | 0.00 | 85 | 1022.8 |
| 20260903021035 | 16 | 202 | 0.0 | 0.0 | 0.00 | 0.00 | 0.00 | 85 | 1022.8 |
| 20260903020134 | 16 | 202 | 0.0 | 0.0 | 0.00 | 0.00 | 0.00 | 85 | 1023.0 |
| 20260903015152 | 16 | 202 | 0.0 | 0.0 | 0.00 | 0.00 | 0.00 | 83 | 1023.1 |
| 20260903014235 | 16 | 202 | 0.0 | 0.0 | 0.00 | 0.00 | 0.00 | 82 | 1022.9 |
| 20260903012236 | 16 | 202 | 0.0 | 0.0 | 0.00 | 0.00 | 0.00 | 82 | 1023.1 |